STARLINK-32253, 60733

Orbit data source: Space-Track

STARLINK-32253, 60733 is a payload satellite owned by SpaceX/Seattle (US) in LEO that was launched on Wed, 28 Aug 2024 UTC via an FALCON 9 launch vehicle from the Air Force Eastern Test Range (AFETR). Payload-class satellites include a variety of spacecraft equipped with specific instruments for various scientific and technological missions. These include communications satellites like Starlink; space stations such as the ISS; scientific satellites like the Hubble; Earth observation satellites from companies like Planet Labs, Umbra, and HawkEye 360; GPS; miniature CubeSats for education and research; and military/defense satellites.

Loading next visibility...
Identifier
60733, 2024-152P
Orbit
LEO
Last TLE update
14 hours ago
Origin
Manufacturer
SpaceX/Seattle
Mission
Operational Commercial Communications
Bus & Motor
STARLINK V2M, Unknown motor
Mass
730 kg wet, ~700 kg dry
Launch date (UTC)
2024-08-28 (10 months ago)
Launch vehicle
FALCON 9
Launch site
Air Force Eastern Test Range (AFETR)
Object type
Payload
Rocket body
Debris
Shape & HBR
Box + 2 Pan, 29 m
Radar Cross Section
36.964 m², Large (>1 m²)

Expand to show TLE details & history

TLE from 14 hours ago
0 STARLINK-32253
1 60733U 24152P   25181.84749225 -.00000217  00000-0  48041-5 0  9994
2 60733  53.1607 358.1353 0001075  81.2897 278.8226 15.30196030 48240
Epoch: 2025-06-30T20:20Z
TLE epoch observation values (Epoch: 2025-06-30T20:20:23.33Z)
Latitude
0.00002°
Longitude
133.88669°
Altitude
476.014 km
Speed
7.629 km/s
True Right ascension
23h 52m 32s
True Declination
0° 00' 00"
Sunlit
Object was in daylight at epoch
Visualization orbit readout
Latitude
-32.26454°
Longitude
-20.67114°
Altitude
485.807 km
Speed
7.622 km/s
Apparent Right ascension
11h 43m 12s
Apparent Declination
-39° 54' 55"
Sunlit
Object is in full shadow
Visualization observer readout
Local Sidereal Time
21:29:00
Azimuth
259.055° W
Elevation
-64.423°
Doppler factor
1
Orbital elements
Apogee altitude
476.22 km
Perigee altitude
474.746 km
Semi-major axis
6,853.62 km
Eccentricity
0.00011
Inclination
53.1607°
RAAN
358.1353°
Arg. of periapsis
81.2897°
True anomaly
Unknown
Mean anomaly
278.8226°
Eccentric anomaly
Unknown
Mean motion
3.82528 °/min
Orbital period
94.11 mins
BSTAR
0.0000048041
Loading maneuver chart data...
Loading SW <> Apogee altitude chart data...
Loading historical data...
Loading historical data...
Loading historical data...
Loading historical data...
Loading historical data...
Loading historical data...
Loading historical data...

STARLINK-32253 Visibility forecast

Observer location: undefined°, undefined°

Span
Click to sort rows by Start time (UTC) header in descending order
Start Az.
Max El. time (UTC)
Max El. Az.
Max El.
End time (UTC)
End Az.
5 mins2025-07-01 13:44:39.660Z187.944° SSW2025-07-01 13:46:39.660Z148.039° SSE26.117°2025-07-01 13:49:39.660Z75.518° E
5 mins2025-07-01 15:22:39.660Z270.981° WNW2025-07-01 15:24:39.660Z315.784° NNW28.381°2025-07-01 15:27:39.660Z29.401° NE
5 mins2025-07-01 20:19:39.660Z336.056° NNW2025-07-01 20:21:39.660Z21.051° NNE26.868°2025-07-01 20:24:39.660Z89.787° E
5 mins2025-07-01 21:57:39.660Z283.297° WNW2025-07-01 21:59:39.660Z234.572° WSW29.284°2025-07-01 22:02:39.660Z164.987° S
|